OBJECT AE, 57194

Orbit data source: Space-Track

You're viewing an Uncataloged Satellite

Recently launched and/or uncataloged satellites may have evolving metadata. Metadata may include but not limited to: Owner, Maufacturer, Bus, Motor, and Mission.

OBJECT AE, 57194 is a satellite in SSO that was launched on Tue, 27 Jun 2023 UTC via a SOYUZ-2-1B launch vehicle from the Vostochny Cosmodrome (VOSTO). Unknown objects in Earth's orbit typically refer to objects detected orbiting the Earth but have not yet been identified or cataloged. These objects could be anything from previously untracked satellites, spent rocket stages, debris from satellite collisions, or even natural meteoroids temporarily captured by Earth's gravity.

Loading next visibility...
Identifier
57194, 2023-091AE
Orbit
SSO
Country
Flag of TBDTBD
Related business
Manufacturer
Sputniks
Mission
Operational Commercial Communications
Bus & Motor
CUBESAT 3U?, Unknown motor
Mass
3 kg wet, 3 kg dry
Launch date (UTC)
2023-06-27 (3 years ago)
Launch vehicle
SOYUZ-2-1B
Launch site
Vostochny Cosmodrome (VOSTO)
Object type
Unknown
Shape & HBR
Box, 0.1 m
Radar Cross Section
0.035 m², Small (<0.1 m²)

Expand to show TLE details & history
Last TLE update: 19 hours ago

TLE from 19 hours ago
0 OBJECT AE
1 57194U 23091AE  26145.55133727  .00009031  00000-0  36265-3 0  9990
2 57194  97.5079 208.3179 0011867 179.0982 181.0279 15.25128376160829
Epoch: 2026-05-25T13:13Z
TLE epoch observation values (Epoch: 2026-05-25T13:13:55.540Z)
Latitude
-0.00001°
Longitude
126.69898°
Altitude
501.646 km
Speed
7.609 km/s
True Right ascension
13h 53m 16s
True Declination
0° 00' 00"
Sunlit
Object was in full shadow at epoch
Visualization orbit readout
Latitude
Unknown
Longitude
Unknown
Altitude
Unknown
Speed
Unknown
Apparent Right ascension
Unknown
Apparent Declination
Unknown
Sunlit
N/A
Visualization observer readout
Local Sidereal Time
17:20:20
Azimuth
Unknown
Elevation
Unknown
Doppler factor
Unknown
Orbital elements
Apogee altitude
495.511 km
Perigee altitude
479.216 km
Semi-major axis
6,865.5 km
Eccentricity
0.00119
Inclination
97.5079°
RAAN
208.3179°
Arg. of periapsis
179.0982°
True anomaly
181.02546°
Mean anomaly
181.0279°
Eccentric anomaly
181.02668°
Mean motion
3.81535 °/min
Orbital period
94.36 mins
BSTAR
0.00036265
Loading maneuver chart data...
Computing Atmospheric mass density...
Loading historical data...
Loading historical data...
Loading historical data...
Loading historical data...
Loading historical data...
Loading historical data...
Loading historical data...

Documentation

Showing up to 5 results
|